Aérodrome :
LOGIN :

S'inscrire | Disclaimer

   EN    FR    IT 

 










Légende :    VFR   VFR Marginal   IFR   IFR Intensif   IFR Très Intensif
Visi : 
Plafond : 
>= 8 km
>= 3000ft
5 à 8 km
1000 à 3000 ft
1500m à 5 km
500 à 1000 ft
800 à 1500m
200 à 500 ft
< 800m
< 200 ft
Symboles :   Orages  Brouillard  Fortes neiges  Fortes précipitations  Vent > 20 kt
SIGMETs :   Divers  Orages  Givrage  Turbulence  Onde Orograph.  Cendres Volcan.







- Altitude de l'aérodrome : 1345 ft
- Code IATA : FRZ


ETHF - Fritzlar

DERNIER METAR :
  • 250920Z 24014KT 9999 SCT032 BKN050 15/09 Q1009 BLU BLU TEMPO WHT

METARs EXPIRÉS :
  • 250820Z 25014KT 9999 FEW025 BKN030 15/08 Q1009 BLU BLU TEMPO WHT
  • 250720Z 22008KT 9999 FEW020 SCT040 15/09 Q1008 BLU+BLU TEMPO WHT

TAF TAF ETHF
Valide du 25 à 08h jusqu'au 25 à 17h UTC


250705Z 2508/2517 22012KT 9999 NSW BKN050
TEMPO 2508/2515 23015G28KT 6000 -SHRA BKN020TCU
Pas de NOTAMs connus pour ce terrain.



MET'MAP, la Météo Aéronautique d'un coup d'oeil ! - Copyright ORBIFLY Décembre 2007 - Disclaimer

ORBIFLY MET'MAP TEAM :

Programmation & Développement : Alexandra Zaïnal
Conception & Développement : Baudouin d'Aumeries
Co-Programmation & Développement : Marc-Olivier Méhu
Soutien technique & logistique : Manuel Goepfert

Contact : metmap@orbifly.com




SOURCES & CREDITS :

   NOAA